Location: Goheenville
(40.9070°N, 79.3720°W)
Time: 01:25:17
(UTC-04:00)

Cosmos 1727 Rocket - Visible Passes

Search period start: 26 September 2017 00:00
Search period end: 06 October 2017 00:00
Orbit: 961 x 997 km, 82.9° (Epoch: 25 September)

Date Brightness Start Highest point End Pass type
(mag) Time Alt. Az. Time Alt. Az. Time Alt. Az.
26 Sep 4.4 21:39:38 10° N 21:44:38 52° NNE 21:44:38 52° NNE visible
26 Sep 6.2 23:26:29 10° NW 23:29:23 18° WNW 23:29:23 18° WNW visible
27 Sep 5.4 20:22:05 10° NNE 20:26:12 18° ENE 20:26:20 18° ENE visible
27 Sep 4.5 22:05:59 10° NNW 22:11:05 58° NW 22:11:05 58° NW visible
28 Sep 4.8 20:47:25 10° NNE 20:52:50 32° ENE 20:52:50 32° ENE visible
28 Sep 5.2 22:32:41 10° NNW 22:37:34 37° WNW 22:37:34 37° WNW visible
29 Sep 4.1 21:13:20 10° N 21:19:21 57° ENE 21:19:21 57° ENE visible
29 Sep 6.0 22:59:53 10° NW 23:04:06 21° WNW 23:04:06 21° WNW visible
30 Sep 5.5 19:56:02 10° NNE 19:59:46 16° ENE 20:01:10 15° E visible
30 Sep 4.0 21:39:37 10° N 21:45:56 80° W 21:45:56 80° W visible
30 Sep 6.6 23:28:56 10° WNW 23:30:18 11° WNW 23:30:41 11° W visible
01 Oct 4.8 20:21:11 10° NNE 20:26:35 29° ENE 20:27:48 27° E visible
01 Oct 4.9 22:06:15 10° NNW 22:12:11 44° W 22:12:34 43° W visible
02 Oct 4.1 20:47:02 10° N 20:53:12 52° ENE 20:54:31 45° ESE visible
02 Oct 5.9 22:33:20 10° NNW 22:38:13 24° W 22:39:17 23° W visible
03 Oct 5.6 19:30:03 10° NE 19:33:20 14° ENE 19:36:33 10° E visible
03 Oct 3.9 21:13:15 10° N 21:19:38 88° W 21:21:19 53° S visible
03 Oct 6.6 23:01:41 10° NW 23:04:04 12° WNW 23:06:06 11° W visible
04 Oct 4.9 19:54:59 10° NNE 20:00:12 26° ENE 20:03:28 18° ESE visible
04 Oct 4.8 21:39:49 10° NNW 21:45:53 49° W 21:48:15 33° SW visible
05 Oct 4.2 20:20:45 10° N 20:26:51 47° ENE 20:30:34 23° SE visible
05 Oct 5.8 22:06:49 10° NNW 22:11:56 27° W 22:15:21 17° SW visible
